Location: Chris' Backyard Observatory
(47.3045°N, 122.2839°W)
Time: 08:28:57
(UTC-07:00)

Daily predictions for brighter satellites

Satellite Brightness Start Highest point End
(mag) Time Altitude Azimuth Time Altitude Azimuth Time Altitude Azimuth
Meteor 1-22 Rocket 4.1 19:07:46 10° S 19:13:04 81° E 19:18:23 10° NNE
Okean 3 Rocket 4.3 19:09:41 10° NNW 19:14:12 62° W 19:18:40 10° S
Cosmos 1470 4.4 19:13:17 10° ESE 19:15:31 15° E 19:17:45 10° NE
CZ-4C R/B 3.4 19:13:15 10° WSW 19:18:32 44° NW 19:24:33 10° NE
Cosmos 1544 4.0 19:18:47 10° SSE 19:22:00 28° E 19:25:14 10° NNE
SAR-Lupe-4 3.5 19:18:45 10° SSE 19:22:16 64° ENE 19:25:51 10° N
ATLAS 5 CENTAUR R/B 1.9 19:19:30 10° SSW 19:24:19 78° SE 19:29:37 10° NE
Cosmos 2333 Rocket 4.0 19:19:52 10° WSW 19:25:01 33° NW 19:30:13 10° NNE
TELKOM 3 4.1 19:22:46 10° WNW 19:26:02 48° SSW 19:28:21 10° SE
ATLAS CENTAUR R/B 3.9 19:26:15 10° SSW 19:31:34 69° SE 19:48:55 10° NE
ATLAS 3B R/B 4.3 19:25:34 10° W 19:32:17 33° NNW 19:38:45 10° NNE
Resurs 01 Rocket 2.0 19:28:34 10° SE 19:32:47 44° ENE 19:37:02 10° N
COSMO-SKYMED 1 2.7 19:28:37 10° NNE 19:32:59 84° WNW 19:37:19 10° SSW
SJ-6B 2.8 19:32:19 10° SSE 19:36:21 81° ENE 19:40:30 10° NNW
Cosmos 2237 Rocket 4.1 19:32:39 10° WSW 19:37:39 31° NW 19:42:40 10° NNE
Cosmos 1076 Rocket 4.0 19:33:25 10° NNW 19:37:44 65° W 19:42:02 10° S
SL-8 R/B 4.2 19:33:32 10° SW 19:38:04 45° SSE 19:42:09 13° E
Cosmos 1484 Rocket 3.8 19:35:01 10° S 19:38:47 50° W 19:42:40 10° NNW
Meteor 2-12 Rocket 4.5 19:33:41 10° S 19:39:43 60° E 19:45:45 10° NNE
METEOR-M 4.1 19:35:26 10° SSE 19:40:43 65° ENE 19:46:02 10° N
BREEZE-M DEB (TANK) 4.3 19:23:15 10° W 19:42:27 83° S 19:46:53 14° E
ALOS 3.0 19:38:41 10° SE 19:42:52 34° ENE 19:47:04 10° N
Meteor 1-29 4.0 19:40:31 10° NE 19:43:28 25° E 19:46:23 10° SSE
Cosmos 2151 4.0 19:41:19 10° NNE 19:44:52 25° ENE 19:47:51 13° ESE
ASTEX 1 4.0 19:44:04 10° NNE 19:48:27 32° E 19:52:49 10° SSE
Cosmos 1766 Rocket 4.2 19:44:59 10° NNW 19:49:18 60° W 19:53:33 10° S
GP-B 4.2 19:46:23 10° NNE 19:49:56 23° E 19:52:51 13° SE
FengYun 1-2 T 4.3 19:45:06 10° SE 19:50:27 56° ENE 19:55:50 10° N
ISS -2.9 19:48:30 10° SW 19:51:36 42° SE 19:53:27 20° E
Cosmos-2242 3.0 19:47:41 10° S 19:52:04 81° E 19:56:30 10° N
Cosmos 1758 3.4 19:50:13 10° S 19:54:18 83° W 19:58:27 10° N
Nadezhda 4 Rocket 3.9 19:48:19 10° N 19:54:38 76° E 20:00:50 10° SSE
Abrixas 2.7 19:52:24 10° SW 19:55:20 51° SSE 19:56:48 25° E
Cosmos 2221 4.0 19:58:44 17° ENE 19:58:44 17° ENE 20:01:01 10° NE
NOSS 3-2 (A) 4.2 19:52:16 10° WSW 19:58:22 58° NW 20:05:09 10° NE
SL-16 R/B 3.6 19:55:23 10° SW 20:00:45 41° NW 20:06:09 10° NNE
Meteor 1-28 Rocket 3.2 19:57:56 10° N 20:01:40 80° WNW 20:05:23 10° SSW
FENGYUN 3A 3.8 19:56:48 10° SE 20:01:59 52° ENE 20:07:14 10° N
Cosmos 1092 Rocket 3.9 19:59:32 10° N 20:05:44 69° ENE 20:11:52 10° SSE
Cosmos 1346 4.5 20:06:05 10° NNW 20:08:54 39° W 20:11:42 10° SSW
CZ-2D R/B 3.6 20:08:06 20° SE 20:10:25 44° ENE 20:14:09 10° N
Cosmos 1328 4.1 20:06:54 10° N 20:10:45 44° ENE 20:13:01 22° SE
ERBS 2.6 20:07:59 10° NW 20:11:27 56° NNE 20:12:44 33° E
SL-14 R/B 4.2 20:08:24 10° N 20:12:01 30° ENE 20:12:44 28° E
Cosmos 482 Debris 4.5 20:10:36 10° NW 20:12:43 32° NNE 20:13:30 27° NE
Cosmos 2026 Rocket 4.2 20:09:30 10° N 20:15:24 47° ENE 20:20:31 14° SE
Cosmos 2251 Rocket 4.1 20:11:04 10° SSE 20:15:39 32° E 20:20:16 10° NE
H-2A R/B 2.8 20:16:35 24° SE 20:18:41 53° ENE 20:22:27 10° N
CENTAUR R/B 2.5 20:14:26 10° SSW 20:20:26 60° ESE 20:27:14 10° NE
Cosmos 1655 Rocket 4.2 20:14:28 10° N 20:20:29 47° ENE 20:24:52 18° SE
Cosmos 1331 Rocket 4.1 20:15:25 10° NNW 20:20:40 56° ENE 20:23:44 24° SE
Cosmos 1500 Rocket 3.7 20:16:20 10° NNW 20:20:48 78° W 20:25:14 10° S
Cosmos 1943 Rocket 2.4 20:17:39 10° NNW 20:23:10 52° ENE 20:25:55 28° ESE
Helios 1A 3.4 20:20:53 10° S 20:25:03 63° WSW 20:29:16 10° NNW
Cosmos 1842 Rocket 3.4 20:21:27 10° S 20:25:47 89° E 20:30:11 10° N
Cosmos 1634 Rocket 3.9 20:19:49 10° S 20:25:56 61° E 20:32:02 10° NNE
Cosmos 1939 Rocket 4.4 20:31:11 21° NE 20:31:11 21° NE 20:33:22 10° NNE
Cosmos 839 Rocket 4.4 20:23:10 10° NW 20:31:01 78° WSW 20:36:20 16° SSE
Cosmos 1666 Rocket 4.4 20:30:18 10° N 20:34:00 32° ENE 20:34:00 32° ENE
Cosmos 2369 Rocket 2.6 20:29:28 10° NNW 20:35:05 64° WSW 20:40:36 10° SSE
Cosmos 1302 Rocket 4.3 20:30:12 10° NNW 20:35:12 45° ENE 20:36:31 38° E
Cosmos 2195 Rocket 4.4 20:31:36 10° N 20:37:58 78° E 20:44:19 10° SSE
Cosmos 1733 3.3 20:34:14 10° SSW 20:38:06 79° W 20:41:58 10° N
Cosmos 1943 3.1 20:34:18 10° SSW 20:39:56 83° ESE 20:45:35 10° NNE
Cosmos 1674 4.1 20:37:05 10° NNW 20:40:44 39° W 20:44:22 10° SSW
Helios 1B rocket 3.3 20:42:32 10° N 20:46:32 52° WNW 20:50:32 10° SSW
CZ-4B DEB 3.6 20:46:01 30° SSW 20:47:18 49° W 20:50:29 10° NNW
Cosmos 158 Rocket 3.8 20:43:55 10° SSW 20:48:48 83° WNW 20:53:44 10° NNE
Envisat 3.4 20:49:04 41° ENE 20:49:14 41° ENE 20:53:58 10° N
Cosmos 1470 3.8 20:47:30 10° SSW 20:51:14 45° WNW 20:55:00 10° N
Cosmos 1174 3.9 20:50:30 10° SW 20:54:53 70° NW 20:56:00 43° NNE
Gbstr 26 Del rocket 3.3 20:52:16 10° SW 20:56:53 77° SSE 20:58:06 53° E
USA 186 4.2 20:59:17 13° NNW 20:59:17 13° NNW 20:59:41 10° NNW
BREEZE-M DEB (TANK) 4.0 20:50:09 10° WSW 21:01:23 80° NNW 21:02:55 45° ENE
USA 215 3.2 21:00:26 32° ENE 21:03:36 64° SE 21:10:04 10° SW
Sich 1 3.6 20:59:19 10° N 21:02:37 44° NNE 21:02:37 44° NNE
Cosmos 2058 3.2 21:03:42 10° NNW 21:07:48 65° W 21:08:16 59° SW
Cosmos 1626 4.4 21:05:22 10° N 21:06:16 16° NNE 21:06:16 16° NNE
Resurs 01 Rocket 4.1 21:06:02 10° SW 21:09:28 22° W 21:12:55 10° NW
ATLAS 5 CENTAUR R/B 3.9 21:05:23 10° W 21:09:38 27° NNW 21:14:15 10° NNE
ERS-1 Rocket 2.8 21:16:05 77° ENE 21:16:05 77° ENE 21:21:06 10° NNW
H-2A R/B 4.2 21:20:17 14° NNE 21:20:17 14° NNE 21:21:31 10° NNE
ALOS 4.0 21:16:12 10° SSW 21:20:19 30° W 21:24:28 10° NNW
SL-8 R/B 3.7 21:15:41 10° W 21:20:08 76° WNW 21:20:08 76° WNW
Cosmos 1656 Rocket 3.5 21:17:39 10° NNW 21:22:55 71° NE 21:22:55 71° NE
GP-B 4.5 21:23:15 10° NNW 21:27:23 38° W 21:30:21 17° SW
ISS -0.7 21:24:54 10° W 21:26:07 20° W 21:26:07 20° W
Cosmos 1437 Rocket 4.4 21:30:16 31° NNW 21:30:16 31° NNW 21:32:36 10° N
Meteor 2-1 Rocket 4.4 21:23:17 10° SSW 21:29:04 76° WNW 21:35:02 10° N
ARGOS 4.4 21:32:56 29° NNE 21:32:56 29° NNE 21:36:07 10° N
Cosmos 2180 Rocket 4.3 21:29:46 47° S 21:31:43 88° W 21:37:55 10° N
H-2A R/B 3.7 21:34:35 28° N 21:34:35 28° N 21:36:50 10° N
Cosmos 1805 Rocket 4.4 21:28:32 10° NNW 21:32:48 48° W 21:32:48 48° W
Cosmos 2221 3.4 21:35:32 46° WNW 21:35:32 46° WNW 21:39:31 10° N
SPOT 5 4.4 21:40:04 25° N 21:40:04 25° N 21:41:58 10° N
Cosmos 1633 Rocket 4.3 21:39:29 10° NNW 21:42:17 37° NNW 21:42:17 37° NNW
Cosmos 2279 Rocket 4.4 21:38:44 10° SSW 21:44:51 61° WNW 21:51:01 10° N
Cosmos 2266 Rocket 4.1 21:52:47 10° N 21:58:35 74° NW 21:58:35 74° NW
Cosmos 1980 Rocket 4.3 22:01:38 10° N 22:03:58 16° NNE 22:03:58 16° NNE
Cosmos 1943 Rocket 3.8 22:01:58 10° NW 22:06:36 27° WSW 22:07:28 26° WSW
CENTAUR R/B 3.8 22:05:29 10° WSW 22:11:29 40° NNW 22:18:14 10° NE
Terra 4.4 22:24:58 14° N 22:24:58 14° N 22:25:39 10° N
USA 215 4.0 22:47:50 48° WNW 22:47:50 48° WNW 22:52:54 10° W
H-2A R/B 4.4 23:00:56 19° NNW 23:00:56 19° NNW 23:02:20 10° NNW
CZ-4C R/B 4.4 22:54:50 10° NW 22:59:47 22° NNE 23:00:08 22° NNE
ATLAS 3B R/B 4.3 23:12:22 10° NW 23:17:26 28° N 23:17:26 28° N
